Torna al catalogo

NOAA 16 DEB

AttivoSSO
NORAD 41199·DEBRIS·🇺🇸 United States

Lanciato Sep 21, 2000 da Vandenberg Space Force Base

Loading…

Prossimi Passaggi (prossime 24 ore)

TLE

AggiornatoSource: Space-Track

Epoca: Sep 12, 2026, 06:11 UTC

1 41199U 00055DC  26255.25800701  .00002080  00000-0  10966-2 0  9991
2 41199  98.7407 268.6767 0060654  81.2330 279.5706 14.14055397551478

Traccia NOAA 16 DEB in tempo reale con AllMySat

Download on the App Store